Change the Weather History Date:

Friday, November 29, 2013

  Actual Average Record
Temperature  
Mean Temperature -6 °F -  
Max Temperature 3 °F 25 °F 47 °F (1983)
Min Temperature -18 °F 11 °F -24 °F (1990)
Degree Days  
Heating Degree Days 71    
Moisture  
Dew Point -11 °F    
Average Humidity 83    
Maximum Humidity 88    
Minimum Humidity 76    
Precipitation  
Precipitation 0.00 in - - ()
Sea Level Pressure  
Sea Level Pressure 30.13 in    
Wind  
Wind Speed 3 mph (ENE)    
Max Wind Speed 7 mph    
Max Gust Speed -    
Visibility 10 miles    
Events      
Averages and records for this station are not official NWS values.
T = Trace of Precipitation, MM = Missing Value Source: NWS Daily Summary

Daily Weather History Graph

Daily Weather History Graph

Search for Another Location

Airport or City:

Trip Planner

Search our weather history database for the weather conditions in past years. The results will help you decide how hot, cold, wet, or windy it might be!

Date:

Astronomy

Nov. 29, 2013 Rise Set
Actual Time 9:41 AM AKST 4:04 PM AKST
Civil Twilight 8:46 AM AKST 5:00 PM AKST
Nautical Twilight 7:50 AM AKST 5:56 PM AKST
Astronomical Twilight 6:59 AM AKST 6:47 PM AKST
Moon 5:03 AM AKST 2:45 PM AKST
Length of Visible Light 8h 13m
Length of Day
6h 23m
Waning Crescent, 13% of the Moon is Illuminated
Nov 29
Waning Crescent
Dec 2
New
Dec 9
First Quarter
Dec 17
Full
Dec 25
Last Quarter

Hourly Weather History & Observations

Time (AKST) Temp. Windchill Dew Point Humidity Pressure Visibility Wind Dir Wind Speed Gust Speed Precip Events Conditions
12:53 AM -14.1 °F -26.3 °F -17.0 °F 87% 30.04 in 10.0 mi North 4.6 mph - N/A   Clear
1:53 AM -9.0 °F -18.2 °F -13.0 °F 83% 30.06 in 10.0 mi East 3.5 mph - N/A   Clear
3:53 AM -13.0 °F - -17.0 °F 82% 30.06 in 10.0 mi Calm Calm - N/A   Clear
4:53 AM -13.0 °F -25.1 °F -16.1 °F 86% 30.08 in 10.0 mi NNE 4.6 mph - N/A   Clear
5:53 AM -11.0 °F -22.8 °F -15.0 °F 83% 30.07 in 10.0 mi East 4.6 mph - N/A   Clear
6:53 AM -14.1 °F -26.3 °F -17.0 °F 87% 30.08 in 10.0 mi NE 4.6 mph - N/A   Clear
7:53 AM -15.0 °F -25.0 °F -20.0 °F 78% 30.07 in 10.0 mi NNE 3.5 mph - N/A   Clear
8:53 AM -7.1 °F - -11.0 °F 83% 30.09 in 10.0 mi Calm Calm - N/A   Overcast
9:53 AM -2.0 °F -12.2 °F -7.1 °F 79% 30.11 in 10.0 mi ENE 4.6 mph - N/A   Overcast
10:53 AM 1.9 °F - -2.0 °F 83% 30.12 in 10.0 mi Calm Calm - N/A   Overcast
11:53 AM 1.9 °F - -0.9 °F 88% 30.13 in 10.0 mi Calm Calm - N/A   Partly Cloudy
12:53 PM 3.0 °F -8.0 °F -0.9 °F 84% 30.14 in 10.0 mi East 5.8 mph - N/A   Clear
1:53 PM 3.9 °F -6.9 °F -0.9 °F 80% 30.14 in 10.0 mi East 5.8 mph - N/A   Clear
2:53 PM 3.9 °F -8.2 °F -2.0 °F 76% 30.13 in 10.0 mi East 6.9 mph - N/A   Clear
3:53 PM 3.0 °F -6.4 °F -2.9 °F 76% 30.13 in 10.0 mi ENE 4.6 mph - N/A   Clear
4:53 PM -2.0 °F - -5.1 °F 87% 30.15 in 10.0 mi Calm Calm - N/A   Clear
5:53 PM -2.9 °F -11.2 °F -6.0 °F 87% 30.16 in 10.0 mi East 3.5 mph - N/A   Clear
6:53 PM -5.1 °F -13.6 °F -8.0 °F 87% 30.17 in 10.0 mi East 3.5 mph - N/A   Clear
7:53 PM -9.9 °F -19.2 °F -13.0 °F 86% 30.17 in 10.0 mi East 3.5 mph - N/A   Clear
8:53 PM -9.9 °F -21.5 °F -13.0 °F 86% 30.18 in 10.0 mi East 4.6 mph - N/A   Clear
9:53 PM -14.1 °F -23.9 °F -17.0 °F 87% 30.20 in 10.0 mi North 3.5 mph - N/A   Clear
10:53 PM -13.0 °F - -16.1 °F 86% 30.20 in 10.0 mi Calm Calm - N/A   Clear
11:53 PM -18.0 °F - -23.1 °F 78% 30.21 in 10.0 mi Calm Calm - N/A   Clear